EW7535 Weather Reports


Display with metric or nautical units.
time (UTC)temp
F
wind
direction
speed
MPH
gust
MPH
rain 1hr
in
rain 24hr
in
rain mn
in
humidity
%
barometer
mb
20260831063047 86 290 0.0 4.0 0.00 0.00 0.00 47 1007.3
20260831061545 86 285 1.0 4.0 0.00 0.00 0.00 47 1007.3
20260831060049 87 297 4.0 7.0 0.00 0.00 0.00 46 1007.3
20260831054544 87 295 1.0 9.0 0.00 0.00 0.00 45 1007.3
20260831053049 87 293 2.0 7.0 0.00 0.00 0.00 44 1007.2
20260831051541 87 300 2.0 7.0 0.00 0.00 0.00 44 1006.9
20260831050040 88 305 4.0 11.0 0.00 0.00 0.00 44 1006.8
20260831044544 88 304 4.0 12.0 0.00 0.00 0.00 43 1006.9
20260831043043 88 297 5.0 14.0 0.00 0.00 0.00 43 1006.9
20260831041636 88 314 6.0 12.0 0.00 0.00 0.00 43 1006.9
20260831040035 88 279 5.0 12.0 0.00 0.00 0.00 42 1006.7
20260831034534 88 297 9.0 14.0 0.00 0.00 0.00 42 1006.5
20260831033045 88 293 9.0 16.0 0.00 0.00 0.00 41 1006.4
20260831031502 89 291 8.0 16.0 0.00 0.00 0.00 41 1006.2
20260831030002 90 309 8.0 16.0 0.00 0.00 0.00 41 1005.6
20260831024601 91 290 13.0 21.0 0.00 0.00 0.00 40 1005.2
20260831023108 93 304 10.0 17.0 0.00 0.00 0.00 38 1004.7
20260831021601 94 307 5.0 9.0 0.00 0.00 0.00 36 1004.4
20260831020114 94 293 4.0 8.0 0.00 0.00 0.00 35 1004.3
20260831014557 94 304 3.0 6.0 0.00 0.00 0.00 34 1004.2
20260831013056 95 295 5.0 7.0 0.00 0.00 0.00 33 1004.1
20260831011605 95 295 3.0 8.0 0.00 0.00 0.00 33 1004.0
20260831010054 96 274 4.0 8.0 0.00 0.00 0.00 32 1003.9
20260831004554 97 291 4.0 8.0 0.00 0.00 0.00 31 1003.9
20260831003053 98 296 7.0 12.0 0.00 0.00 0.00 31 1003.9
20260831001551 99 285 4.0 9.0 0.00 0.00 0.00 29 1004.0
20260831000050 99 277 8.0 12.0 0.00 0.00 0.00 30 1003.9
20260830234548 99 284 5.0 10.0 0.00 0.00 0.00 30 1003.9
20260830233047 98 293 6.0 12.0 0.00 0.00 0.00 31 1004.0
20260830231545 97 286 6.0 12.0 0.00 0.00 0.00 31 1004.1
20260830230044 99 288 1.0 14.0 0.00 0.00 0.00 31 1004.3
20260830224542 100 283 4.0 8.0 0.00 0.00 0.00 30 1004.5
20260830223039 101 281 2.0 9.0 0.00 0.00 0.00 30 1004.8
20260830221540 100 297 0.0 7.0 0.00 0.00 0.00 30 1005.1
20260830220044 99 299 2.0 12.0 0.00 0.00 0.00 31 1005.4
20260830214538 98 295 9.0 20.0 0.00 0.00 0.00 32 1005.5
20260830213043 100 286 3.0 14.0 0.00 0.00 0.00 31 1005.8
20260830211548 97 302 8.0 16.0 0.00 0.00 0.00 32 1006.1
20260830210046 98 280 4.0 8.0 0.00 0.00 0.00 31 1006.3
20260830204523 101 254 1.0 4.0 0.00 0.00 0.00 30 1006.6
20260830203026 101 276 0.0 8.0 0.00 0.00 0.00 30 1006.9
20260830201516 99 219 0.0 4.0 0.00 0.00 0.00 31 1007.2
20260830200014 98 283 4.0 7.0 0.00 0.00 0.00 31 1007.3
20260830194514 97 280 0.0 9.0 0.00 0.00 0.00 34 1007.6
20260830193017 97 262 4.0 9.0 0.00 0.00 0.00 33 1007.9
20260830191516 100 255 1.0 6.0 0.00 0.00 0.00 33 1008.2
20260830173035 94 142 2.0 5.0 0.00 0.00 0.00 39 1009.3
20260830171535 94 101 0.0 2.0 0.00 0.00 0.00 39 1009.4
20260830170030 91 216 2.0 5.0 0.00 0.00 0.00 42 1009.4
20260830164534 90 174 1.0 4.0 0.00 0.00 0.00 45 1009.5
20260830163025 89 250 0.0 2.0 0.00 0.00 0.00 45 1009.6
20260830161529 90 179 1.0 6.0 0.00 0.00 0.00 44 1009.7
20260830160023 91 204 0.0 5.0 0.00 0.00 0.00 44 1009.7
20260830154527 89 120 1.0 4.0 0.00 0.00 0.00 45 1009.8
20260830153014 88 201 0.0 2.0 0.00 0.00 0.00 48 1009.7
20260830151511 86 124 1.0 3.0 0.00 0.00 0.00 48 1009.6
20260830150010 86 162 0.0 1.0 0.00 0.00 0.00 50 1009.6
20260830144507 84 162 0.0 0.0 0.00 0.00 0.00 54 1009.6
20260830143004 82 162 0.0 0.0 0.00 0.00 0.00 53 1009.7
20260830141504 82 175 0.0 0.0 0.00 0.00 0.00 55 1009.8
20260830140001 81 175 0.0 0.0 0.00 0.00 0.00 55 1009.9
20260830134601 81 175 0.0 4.0 0.00 0.00 0.00 55 1009.9
20260830133057 81 110 0.0 0.0 0.00 0.00 0.00 54 1010.0
20260830131556 82 98 0.0 3.0 0.00 0.00 0.00 54 1009.9
20260830130110 82 101 0.0 4.0 0.00 0.00 0.00 54 1009.8
20260830124552 82 87 1.0 4.0 0.00 0.00 0.00 54 1009.7
20260830123049 82 130 1.0 8.0 0.00 0.00 0.00 53 1009.3
20260830121547 83 111 4.0 9.0 0.00 0.00 0.00 52 1009.1
20260830120053 83 112 1.0 7.0 0.00 0.00 0.00 51 1009.4
20260830114607 83 125 1.0 8.0 0.00 0.00 0.00 49 1009.0
20260830113043 83 113 4.0 10.0 0.00 0.00 0.00 48 1008.6
20260830111537 83 94 2.0 5.0 0.00 0.00 0.00 47 1008.5
20260830110034 84 114 0.0 7.0 0.00 0.00 0.00 47 1008.7
20260830104536 84 172 2.0 7.0 0.00 0.00 0.00 46 1008.6
20260830103029 84 69 2.0 7.0 0.00 0.00 0.00 46 1008.4
20260830101525 84 107 3.0 8.0 0.00 0.00 0.00 47 1008.1
20260830100023 84 86 1.0 9.0 0.00 0.00 0.00 47 1007.8
20260830094521 84 107 2.0 7.0 0.00 0.00 0.00 48 1007.7
20260830093049 83 113 1.0 7.0 0.00 0.00 0.00 48 1007.5
20260830091549 83 96 1.0 4.0 0.00 0.00 0.00 50 1007.4
20260830090021 82 56 0.0 2.0 0.00 0.00 0.00 52 1007.3
20260830084518 82 6 0.0 0.0 0.00 0.00 0.00 52 1007.3
20260830083016 82 290 0.0 2.0 0.00 0.00 0.00 51 1007.5
20260830081511 83 289 0.0 0.0 0.00 0.00 0.00 51 1007.4
20260830080010 83 271 0.0 2.0 0.00 0.00 0.00 51 1007.3
20260830074508 83 276 4.0 6.0 0.00 0.00 0.00 51 1007.2
20260830073005 84 303 0.0 7.0 0.00 0.00 0.00 48 1007.1
20260830071502 85 276 2.0 7.0 0.00 0.00 0.00 45 1006.7
20260830070002 85 127 0.0 6.0 0.00 0.00 0.00 45 1006.6
20260830064501 85 111 1.0 13.0 0.00 0.00 0.00 46 1006.5